sat.trackr.live / text

‹ back to catalog

FLOCK 4H-20

NORAD 66723 · 2025-276BK

PAYLOAD ACTIVE UNKNOWN

§ Identity

Operator
Country
US
Launch date
2025-11-28
Launch site
AFWTR
Launch vehicle
Mass (kg)
RCS (m²)

Purposes: earth_obs

External: N2YO · Heavens-Above · Gunter

§ Orbital elements

Epoch: 2026-09-19T03:51:02.425536Z

Period
94.60 min
Inclination
97.4134°
Eccentricity
0.0002235
Mean motion
15.22176090 rev/d
Perigee alt
497.7 km
Apogee alt
500.8 km
Semi-major
6,877.4 km
B*
2.2568e-4
RAAN
334.7511°
Arg perigee
12.8324°
Mean anomaly
347.2968°
Rev number
4,398

§ Raw data

FLOCK 4H-201 66723U 25276BK  26262.16044474  .00005110  00000+0  22568-3 0  99962 66723  97.4134 334.7511 0002235  12.8324 347.2968 15.22176090 43986

JSON: /api/v1/satellites/66723 · /tle

For live sub-satellite position, see the globe view (requires WebGL).

§ Visibility from observer

Set your observer location to see the next 7 days of passes ≥ 10°. The values pass through the URL so the page stays shareable.

No JS? Fill the form by hand. The geolocation button needs JavaScript.